User: anonymous   Login
Location: Unspecified
(0.0000°N, 0.0000°E)
Time: 17:24:10
(UTC+00:00)
Language:

KITSAT 1 - Orbit

View from above orbital plane
View from above orbital plane
View from above satellite
View from above satellite

Ground track
Ground track

The orbit data is extracted from the following two-line orbital elements,

1 22077U 92052B   18113.93043035 -.00000062 +00000-0 -82945-6 0  9991
2 22077 066.0875 035.6506 0014978 252.5770 182.1772 12.86522679206996
Epoch (UTC): 23 April 2018 22:19:49
Eccentricity: 0.0014978
inclination: 66.0875°
perigee height: 1304 km
apogee height: 1327 km
right ascension of ascending node: 35.6506°
argument of perigee: 252.5770°
revolutions per day: 12.86522679
mean anomaly at epoch: 182.1772°
orbit number at epoch: 20699

The dashed part of the orbit path shows where the satellite is in the earth's shadow,  

DLR